| time (UTC) | temp F | wind direction | speed MPH | gust MPH | rain 1hr in | rain 24hr in | rain mn in | humidity % | barometer mb |
| 20260509013553 | 63 | 0 | 0.0 | 0.0 | 0.00 | 0.00 | 0.00 | 68 | 1014.2 |
| 20260509013100 | 63 | 0 | 0.0 | 0.0 | 0.00 | 0.00 | 0.00 | 65 | 1014.1 |
| 20260509012553 | 63 | 0 | 0.0 | 0.0 | 0.00 | 0.00 | 0.00 | 65 | 1014.0 |
| 20260509012053 | 63 | 0 | 0.0 | 0.0 | 0.00 | 0.00 | 0.00 | 66 | 1014.1 |
| 20260509011554 | 63 | 0 | 0.0 | 0.0 | 0.00 | 0.00 | 0.00 | 65 | 1014.1 |
| 20260509011057 | 64 | 0 | 0.0 | 0.0 | 0.00 | 0.00 | 0.00 | 63 | 1014.1 |
| 20260509010555 | 64 | 0 | 0.0 | 0.0 | 0.00 | 0.00 | 0.00 | 63 | 1014.2 |
| 20260509010056 | 64 | 0 | 0.0 | 0.0 | 0.00 | 0.00 | 0.00 | 62 | 1014.3 |
| 20260509005555 | 64 | 0 | 0.0 | 0.0 | 0.00 | 0.00 | 0.00 | 61 | 1014.3 |
| 20260509005052 | 65 | 0 | 0.0 | 0.0 | 0.00 | 0.00 | 0.00 | 61 | 1014.2 |
| 20260509004603 | 65 | 0 | 0.0 | 0.0 | 0.00 | 0.00 | 0.00 | 60 | 1014.3 |
| 20260509004054 | 65 | 0 | 0.0 | 0.0 | 0.00 | 0.00 | 0.00 | 60 | 1014.3 |
| 20260509003554 | 65 | 0 | 0.0 | 0.0 | 0.00 | 0.00 | 0.00 | 60 | 1014.4 |
| 20260509003053 | 66 | 0 | 0.0 | 0.0 | 0.00 | 0.00 | 0.00 | 60 | 1014.4 |
| 20260509002555 | 66 | 0 | 0.0 | 0.0 | 0.00 | 0.00 | 0.00 | 59 | 1014.2 |
| 20260509002054 | 66 | 0 | 0.0 | 2.0 | 0.00 | 0.00 | 0.00 | 58 | 1014.3 |
| 20260509001556 | 66 | 0 | 0.0 | 2.0 | 0.00 | 0.00 | 0.00 | 59 | 1014.3 |
| 20260509001053 | 66 | 0 | 0.0 | 2.0 | 0.00 | 0.00 | 0.00 | 57 | 1014.4 |
| 20260509000553 | 67 | 0 | 0.0 | 2.0 | 0.00 | 0.00 | 0.00 | 58 | 1014.2 |
| 20260509000055 | 67 | 0 | 0.0 | 2.0 | 0.00 | 0.00 | 0.00 | 57 | 1014.2 |
| 20260508235553 | 67 | 0 | 0.0 | 3.0 | 0.00 | 0.00 | 0.00 | 57 | 1014.2 |
| 20260508235053 | 67 | 0 | 0.0 | 3.0 | 0.00 | 0.00 | 0.00 | 56 | 1014.1 |
| 20260508234553 | 67 | 360 | 0.0 | 3.0 | 0.00 | 0.00 | 0.00 | 57 | 1014.1 |
| 20260508234053 | 68 | 360 | 1.0 | 3.0 | 0.00 | 0.00 | 0.00 | 57 | 1014.0 |
| 20260508233553 | 68 | 360 | 0.0 | 3.0 | 0.00 | 0.00 | 0.00 | 58 | 1014.0 |
| 20260508233104 | 68 | 0 | 0.0 | 3.0 | 0.00 | 0.00 | 0.00 | 58 | 1014.0 |
| 20260508232552 | 68 | 360 | 0.0 | 3.0 | 0.00 | 0.00 | 0.00 | 57 | 1014.0 |
| 20260508232052 | 68 | 360 | 1.0 | 3.0 | 0.00 | 0.00 | 0.00 | 54 | 1014.0 |
| 20260508231600 | 68 | 0 | 0.0 | 4.0 | 0.00 | 0.00 | 0.00 | 55 | 1014.1 |
| 20260508231054 | 68 | 0 | 0.0 | 4.0 | 0.00 | 0.00 | 0.00 | 55 | 1014.1 |
| 20260508230553 | 68 | 360 | 0.0 | 4.0 | 0.00 | 0.00 | 0.00 | 56 | 1014.2 |
| 20260508230107 | 69 | 360 | 1.0 | 3.0 | 0.00 | 0.00 | 0.00 | 53 | 1014.3 |
| 20260508225553 | 69 | 0 | 0.0 | 4.0 | 0.00 | 0.00 | 0.00 | 54 | 1014.3 |
| 20260508225053 | 69 | 0 | 1.0 | 4.0 | 0.00 | 0.00 | 0.00 | 54 | 1014.3 |
| 20260508224555 | 69 | 360 | 1.0 | 4.0 | 0.00 | 0.00 | 0.00 | 53 | 1014.3 |
| 20260508224053 | 69 | 0 | 0.0 | 4.0 | 0.00 | 0.00 | 0.00 | 53 | 1014.3 |
| 20260508223553 | 69 | 360 | 0.0 | 4.0 | 0.00 | 0.00 | 0.00 | 55 | 1014.5 |
| 20260508223054 | 69 | 360 | 1.0 | 4.0 | 0.00 | 0.00 | 0.00 | 52 | 1014.4 |
| 20260508222551 | 69 | 360 | 0.0 | 2.0 | 0.00 | 0.00 | 0.00 | 53 | 1014.5 |
| 20260508222052 | 69 | 0 | 0.0 | 2.0 | 0.00 | 0.00 | 0.00 | 55 | 1014.3 |
| 20260508221558 | 70 | 0 | 0.0 | 2.0 | 0.00 | 0.00 | 0.00 | 52 | 1014.5 |
| 20260508221053 | 70 | 0 | 0.0 | 2.0 | 0.00 | 0.00 | 0.00 | 49 | 1014.6 |
| 20260508220552 | 70 | 360 | 0.0 | 4.0 | 0.00 | 0.00 | 0.00 | 52 | 1014.4 |
| 20260508220057 | 70 | 0 | 1.0 | 4.0 | 0.00 | 0.00 | 0.00 | 50 | 1014.3 |
| 20260508215552 | 70 | 0 | 0.0 | 2.0 | 0.00 | 0.00 | 0.00 | 50 | 1014.3 |
| 20260508215052 | 71 | 0 | 0.0 | 0.0 | 0.00 | 0.00 | 0.00 | 52 | 1014.3 |
| 20260508214605 | 71 | 0 | 0.0 | 0.0 | 0.00 | 0.00 | 0.00 | 51 | 1014.3 |
| 20260508214052 | 71 | 0 | 0.0 | 1.0 | 0.00 | 0.00 | 0.00 | 53 | 1014.2 |
| 20260508213553 | 71 | 0 | 0.0 | 2.0 | 0.00 | 0.00 | 0.00 | 52 | 1014.1 |
| 20260508213053 | 71 | 0 | 0.0 | 2.0 | 0.00 | 0.00 | 0.00 | 48 | 1014.0 |
| 20260508212553 | 71 | 0 | 0.0 | 2.0 | 0.00 | 0.00 | 0.00 | 47 | 1014.0 |
| 20260508212053 | 71 | 360 | 0.0 | 4.0 | 0.00 | 0.00 | 0.00 | 48 | 1014.0 |
| 20260508211559 | 71 | 0 | 0.0 | 4.0 | 0.00 | 0.00 | 0.00 | 45 | 1014.2 |
| 20260508211053 | 71 | 360 | 0.0 | 4.0 | 0.00 | 0.00 | 0.00 | 49 | 1014.4 |
| 20260508210557 | 71 | 0 | 0.0 | 4.0 | 0.00 | 0.00 | 0.00 | 48 | 1014.6 |
| 20260508210107 | 71 | 360 | 1.0 | 4.0 | 0.00 | 0.00 | 0.00 | 47 | 1014.5 |
| 20260508205552 | 71 | 360 | 1.0 | 3.0 | 0.00 | 0.00 | 0.00 | 47 | 1014.6 |
| 20260508205055 | 71 | 360 | 0.0 | 2.0 | 0.00 | 0.00 | 0.00 | 50 | 1014.7 |
| 20260508204607 | 70 | 0 | 0.0 | 3.0 | 0.00 | 0.00 | 0.00 | 52 | 1014.9 |
| 20260508204053 | 71 | 0 | 0.0 | 3.0 | 0.00 | 0.00 | 0.00 | 48 | 1014.8 |
| 20260508203557 | 70 | 0 | 0.0 | 3.0 | 0.00 | 0.00 | 0.00 | 46 | 1014.7 |
| 20260508203102 | 70 | 0 | 1.0 | 3.0 | 0.00 | 0.00 | 0.00 | 50 | 1014.8 |
| 20260508202553 | 70 | 0 | 0.0 | 4.0 | 0.00 | 0.00 | 0.00 | 49 | 1014.7 |
| 20260508202053 | 70 | 0 | 0.0 | 4.0 | 0.00 | 0.00 | 0.00 | 49 | 1014.7 |
| 20260508201558 | 70 | 0 | 1.0 | 4.0 | 0.00 | 0.00 | 0.00 | 48 | 1014.7 |
| 20260508201053 | 70 | 0 | 0.0 | 2.0 | 0.00 | 0.00 | 0.00 | 47 | 1014.7 |
| 20260508200554 | 70 | 0 | 0.0 | 2.0 | 0.00 | 0.00 | 0.00 | 48 | 1015.0 |
| 20260508200059 | 70 | 360 | 0.0 | 2.0 | 0.00 | 0.00 | 0.00 | 49 | 1015.0 |
| 20260508195552 | 70 | 0 | 0.0 | 2.0 | 0.00 | 0.00 | 0.00 | 50 | 1015.1 |
| 20260508195053 | 70 | 0 | 0.0 | 3.0 | 0.00 | 0.00 | 0.00 | 48 | 1015.4 |
| 20260508194555 | 70 | 0 | 0.0 | 3.0 | 0.00 | 0.00 | 0.00 | 48 | 1015.3 |
| 20260508194052 | 69 | 360 | 0.0 | 2.0 | 0.00 | 0.00 | 0.00 | 47 | 1015.3 |
| 20260508193552 | 69 | 0 | 0.0 | 2.0 | 0.00 | 0.00 | 0.00 | 45 | 1015.4 |
| 20260508193058 | 70 | 0 | 0.0 | 1.0 | 0.00 | 0.00 | 0.00 | 46 | 1015.7 |
| 20260508192554 | 70 | 0 | 0.0 | 2.0 | 0.00 | 0.00 | 0.00 | 41 | 1015.6 |
| 20260508192055 | 70 | 0 | 0.0 | 2.0 | 0.00 | 0.00 | 0.00 | 42 | 1015.7 |
| 20260508191557 | 70 | 0 | 0.0 | 3.0 | 0.00 | 0.00 | 0.00 | 43 | 1015.8 |
| 20260508191052 | 70 | 0 | 0.0 | 3.0 | 0.00 | 0.00 | 0.00 | 41 | 1015.8 |
| 20260508190553 | 70 | 360 | 0.0 | 3.0 | 0.00 | 0.00 | 0.00 | 45 | 1015.8 |
| 20260508190053 | 70 | 360 | 0.0 | 2.0 | 0.00 | 0.00 | 0.00 | 44 | 1015.9 |
| 20260508185556 | 70 | 0 | 0.0 | 2.0 | 0.00 | 0.00 | 0.00 | 46 | 1016.0 |
| 20260508185053 | 70 | 360 | 0.0 | 2.0 | 0.00 | 0.00 | 0.00 | 47 | 1016.0 |
| 20260508184555 | 70 | 0 | 0.0 | 3.0 | 0.00 | 0.00 | 0.00 | 42 | 1016.1 |
| 20260508184057 | 70 | 0 | 0.0 | 4.0 | 0.00 | 0.00 | 0.00 | 45 | 1016.4 |
| 20260508183552 | 70 | 360 | 1.0 | 4.0 | 0.00 | 0.00 | 0.00 | 43 | 1016.6 |
| 20260508183054 | 70 | 360 | 1.0 | 4.0 | 0.00 | 0.00 | 0.00 | 41 | 1016.7 |
| 20260508182553 | 70 | 360 | 1.0 | 5.0 | 0.00 | 0.00 | 0.00 | 45 | 1016.9 |
| 20260508182052 | 70 | 360 | 0.0 | 5.0 | 0.00 | 0.00 | 0.00 | 40 | 1016.8 |
| 20260508181553 | 70 | 0 | 2.0 | 5.0 | 0.00 | 0.00 | 0.00 | 43 | 1017.0 |
| 20260508181053 | 70 | 360 | 0.0 | 4.0 | 0.00 | 0.00 | 0.00 | 46 | 1016.9 |
| 20260508180553 | 70 | 0 | 0.0 | 4.0 | 0.00 | 0.00 | 0.00 | 44 | 1016.9 |
| 20260508180053 | 69 | 0 | 1.0 | 4.0 | 0.00 | 0.00 | 0.00 | 44 | 1016.8 |
| 20260508175552 | 69 | 360 | 0.0 | 3.0 | 0.00 | 0.00 | 0.00 | 47 | 1017.1 |
| 20260508175053 | 69 | 360 | 1.0 | 3.0 | 0.00 | 0.00 | 0.00 | 43 | 1016.9 |
| 20260508174556 | 69 | 360 | 1.0 | 4.0 | 0.00 | 0.00 | 0.00 | 48 | 1017.1 |
| 20260508174052 | 69 | 360 | 1.0 | 4.0 | 0.00 | 0.00 | 0.00 | 52 | 1017.3 |
| 20260508173553 | 70 | 360 | 1.0 | 3.0 | 0.00 | 0.00 | 0.00 | 46 | 1017.4 |
| 20260508173056 | 69 | 360 | 0.0 | 3.0 | 0.00 | 0.00 | 0.00 | 45 | 1017.6 |
| 20260508172552 | 70 | 360 | 0.0 | 2.0 | 0.00 | 0.00 | 0.00 | 46 | 1017.6 |
| 20260508172053 | 70 | 360 | 0.0 | 3.0 | 0.00 | 0.00 | 0.00 | 45 | 1017.6 |
| 20260508171556 | 69 | 0 | 1.0 | 3.0 | 0.00 | 0.00 | 0.00 | 44 | 1017.7 |
| 20260508171053 | 69 | 360 | 0.0 | 2.0 | 0.00 | 0.00 | 0.00 | 45 | 1017.7 |
| 20260508170552 | 69 | 0 | 0.0 | 2.0 | 0.00 | 0.00 | 0.00 | 47 | 1017.5 |
| 20260508170059 | 69 | 360 | 0.0 | 2.0 | 0.00 | 0.00 | 0.00 | 45 | 1017.6 |
| 20260508165552 | 69 | 0 | 0.0 | 4.0 | 0.00 | 0.00 | 0.00 | 46 | 1017.7 |
| 20260508165052 | 69 | 0 | 1.0 | 4.0 | 0.00 | 0.00 | 0.00 | 42 | 1017.7 |
| 20260508164551 | 70 | 360 | 0.0 | 4.0 | 0.00 | 0.00 | 0.00 | 42 | 1018.0 |
| 20260508164053 | 70 | 360 | 0.0 | 10.0 | 0.00 | 0.00 | 0.00 | 44 | 1018.0 |
| 20260508163552 | 70 | 0 | 4.0 | 10.0 | 0.00 | 0.00 | 0.00 | 44 | 1018.1 |
| 20260508163054 | 69 | 0 | 1.0 | 5.0 | 0.00 | 0.00 | 0.00 | 42 | 1018.3 |
| 20260508162552 | 69 | 0 | 2.0 | 5.0 | 0.00 | 0.00 | 0.00 | 40 | 1018.4 |
| 20260508162055 | 69 | 360 | 0.0 | 4.0 | 0.00 | 0.00 | 0.00 | 47 | 1018.4 |
| 20260508161602 | 69 | 0 | 1.0 | 3.0 | 0.00 | 0.00 | 0.00 | 47 | 1018.5 |
| 20260508161053 | 68 | 0 | 0.0 | 3.0 | 0.00 | 0.00 | 0.00 | 48 | 1018.7 |
| 20260508160552 | 68 | 360 | 0.0 | 3.0 | 0.00 | 0.00 | 0.00 | 47 | 1018.7 |
| 20260508160059 | 67 | 0 | 0.0 | 2.0 | 0.00 | 0.00 | 0.00 | 44 | 1018.8 |
| 20260508155553 | 68 | 0 | 0.0 | 2.0 | 0.00 | 0.00 | 0.00 | 45 | 1018.7 |
| 20260508155053 | 68 | 0 | 0.0 | 4.0 | 0.00 | 0.00 | 0.00 | 48 | 1018.9 |
| 20260508154601 | 68 | 0 | 0.0 | 5.0 | 0.00 | 0.00 | 0.00 | 49 | 1018.8 |
| 20260508154052 | 67 | 0 | 1.0 | 5.0 | 0.00 | 0.00 | 0.00 | 49 | 1018.8 |
| 20260508153552 | 67 | 0 | 0.0 | 3.0 | 0.00 | 0.00 | 0.00 | 56 | 1018.8 |
| 20260508153054 | 67 | 0 | 0.0 | 3.0 | 0.00 | 0.00 | 0.00 | 52 | 1018.9 |
| 20260508152554 | 67 | 0 | 0.0 | 6.0 | 0.00 | 0.00 | 0.00 | 51 | 1019.0 |
| 20260508152052 | 66 | 0 | 0.0 | 6.0 | 0.00 | 0.00 | 0.00 | 50 | 1019.1 |
| 20260508151600 | 66 | 0 | 2.0 | 6.0 | 0.00 | 0.00 | 0.00 | 51 | 1019.2 |
| 20260508151052 | 65 | 360 | 2.0 | 6.0 | 0.00 | 0.00 | 0.00 | 54 | 1019.3 |
| 20260508150552 | 65 | 0 | 0.0 | 2.0 | 0.00 | 0.00 | 0.00 | 56 | 1019.1 |
| 20260508150055 | 65 | 0 | 0.0 | 2.0 | 0.00 | 0.00 | 0.00 | 54 | 1019.1 |
| 20260508145555 | 65 | 0 | 0.0 | 5.0 | 0.00 | 0.00 | 0.00 | 58 | 1019.1 |
| 20260508145053 | 64 | 0 | 0.0 | 5.0 | 0.00 | 0.00 | 0.00 | 59 | 1019.2 |
| 20260508144555 | 63 | 360 | 1.0 | 4.0 | 0.00 | 0.00 | 0.00 | 62 | 1019.2 |
| 20260508144053 | 63 | 0 | 0.0 | 2.0 | 0.00 | 0.00 | 0.00 | 64 | 1019.2 |
| 20260508143553 | 63 | 0 | 0.0 | 1.0 | 0.00 | 0.00 | 0.00 | 65 | 1019.3 |
| 20260508143104 | 62 | 0 | 0.0 | 1.0 | 0.00 | 0.00 | 0.00 | 65 | 1019.4 |
| 20260508142552 | 62 | 0 | 0.0 | 2.0 | 0.00 | 0.00 | 0.00 | 66 | 1019.4 |
| 20260508142053 | 62 | 0 | 0.0 | 2.0 | 0.00 | 0.00 | 0.00 | 65 | 1019.4 |
| 20260508141551 | 61 | 0 | 0.0 | 2.0 | 0.00 | 0.00 | 0.00 | 68 | 1019.3 |
| 20260508141053 | 61 | 0 | 0.0 | 3.0 | 0.00 | 0.00 | 0.00 | 67 | 1019.5 |
| 20260508140552 | 61 | 0 | 0.0 | 3.0 | 0.00 | 0.00 | 0.00 | 65 | 1019.6 |
| 20260508140053 | 61 | 0 | 0.0 | 4.0 | 0.00 | 0.00 | 0.00 | 67 | 1019.5 |
| 20260508135553 | 60 | 0 | 0.0 | 4.0 | 0.00 | 0.00 | 0.00 | 69 | 1019.5 |
| 20260508135052 | 59 | 360 | 1.0 | 4.0 | 0.00 | 0.00 | 0.00 | 69 | 1019.5 |
| 20260508134550 | 59 | 0 | 0.0 | 4.0 | 0.00 | 0.00 | 0.00 | 69 | 1019.5 |
| 20260508134052 | 58 | 360 | 1.0 | 4.0 | 0.00 | 0.00 | 0.00 | 71 | 1019.4 |
| 20260508133552 | 57 | 360 | 0.0 | 4.0 | 0.00 | 0.00 | 0.00 | 73 | 1019.4 |
| 20260508133050 | 56 | 360 | 0.0 | 3.0 | 0.00 | 0.00 | 0.00 | 74 | 1019.3 |
| 20260508132553 | 56 | 0 | 0.0 | 3.0 | 0.00 | 0.00 | 0.00 | 75 | 1019.3 |
| 20260508132053 | 55 | 0 | 0.0 | 3.0 | 0.00 | 0.00 | 0.00 | 77 | 1019.4 |
| 20260508131558 | 54 | 0 | 0.0 | 3.0 | 0.00 | 0.00 | 0.00 | 78 | 1019.3 |
| 20260508131053 | 54 | 0 | 0.0 | 2.0 | 0.00 | 0.00 | 0.00 | 78 | 1019.4 |
| 20260508130552 | 54 | 0 | 0.0 | 3.0 | 0.00 | 0.00 | 0.00 | 79 | 1019.4 |
| 20260508130109 | 53 | 0 | 0.0 | 3.0 | 0.00 | 0.00 | 0.00 | 80 | 1019.3 |
| 20260508125552 | 53 | 360 | 0.0 | 3.0 | 0.00 | 0.00 | 0.00 | 81 | 1019.4 |
| 20260508125053 | 52 | 0 | 0.0 | 3.0 | 0.00 | 0.00 | 0.00 | 81 | 1019.4 |
| 20260508124554 | 51 | 0 | 1.0 | 3.0 | 0.00 | 0.00 | 0.00 | 83 | 1019.5 |
| 20260508124052 | 51 | 360 | 0.0 | 2.0 | 0.00 | 0.00 | 0.00 | 83 | 1019.5 |
| 20260508123554 | 50 | 360 | 0.0 | 1.0 | 0.00 | 0.00 | 0.00 | 84 | 1019.5 |
| 20260508123100 | 50 | 0 | 0.0 | 1.0 | 0.00 | 0.00 | 0.00 | 85 | 1019.5 |
| 20260508122552 | 49 | 0 | 0.0 | 1.0 | 0.00 | 0.00 | 0.00 | 86 | 1019.5 |
| 20260508122057 | 49 | 0 | 0.0 | 1.0 | 0.00 | 0.00 | 0.00 | 85 | 1019.3 |
| 20260508121602 | 48 | 0 | 0.0 | 0.0 | 0.00 | 0.00 | 0.00 | 87 | 1019.3 |
| 20260508121053 | 48 | 0 | 0.0 | 0.0 | 0.00 | 0.00 | 0.00 | 88 | 1019.2 |
| 20260508120552 | 48 | 0 | 0.0 | 0.0 | 0.00 | 0.00 | 0.00 | 88 | 1019.2 |
| 20260508120056 | 48 | 0 | 0.0 | 0.0 | 0.00 | 0.00 | 0.00 | 87 | 1019.2 |
| 20260508115553 | 47 | 0 | 0.0 | 0.0 | 0.00 | 0.00 | 0.00 | 88 | 1019.1 |
| 20260508115052 | 47 | 0 | 0.0 | 0.0 | 0.00 | 0.00 | 0.00 | 88 | 1019.0 |
| 20260508114557 | 47 | 0 | 0.0 | 0.0 | 0.00 | 0.00 | 0.00 | 88 | 1019.1 |
| 20260508114052 | 47 | 0 | 0.0 | 0.0 | 0.00 | 0.00 | 0.00 | 88 | 1018.9 |
| 20260508113552 | 47 | 0 | 0.0 | 0.0 | 0.00 | 0.00 | 0.00 | 88 | 1018.6 |
| 20260508113053 | 47 | 0 | 0.0 | 0.0 | 0.00 | 0.00 | 0.00 | 88 | 1018.4 |
| 20260508112552 | 47 | 0 | 0.0 | 0.0 | 0.00 | 0.00 | 0.00 | 88 | 1018.4 |
| 20260508112052 | 47 | 0 | 0.0 | 0.0 | 0.00 | 0.00 | 0.00 | 87 | 1018.3 |
| 20260508111556 | 48 | 0 | 0.0 | 0.0 | 0.00 | 0.00 | 0.00 | 87 | 1018.0 |
| 20260508111054 | 48 | 0 | 0.0 | 1.0 | 0.00 | 0.00 | 0.00 | 87 | 1018.0 |
| 20260508110553 | 48 | 0 | 0.0 | 1.0 | 0.00 | 0.00 | 0.00 | 86 | 1017.9 |
| 20260508110057 | 48 | 0 | 0.0 | 2.0 | 0.00 | 0.00 | 0.00 | 85 | 1017.9 |
| 20260508105552 | 48 | 0 | 0.0 | 3.0 | 0.00 | 0.01 | 0.00 | 86 | 1017.8 |
| 20260508105053 | 48 | 0 | 0.0 | 3.0 | 0.00 | 0.01 | 0.00 | 87 | 1017.8 |
| 20260508104617 | 48 | 360 | 0.0 | 1.0 | 0.00 | 0.01 | 0.00 | 87 | 1017.8 |
| 20260508104057 | 48 | 0 | 0.0 | 2.0 | 0.00 | 0.01 | 0.00 | 88 | 1017.8 |
| 20260508103552 | 48 | 0 | 0.0 | 2.0 | 0.00 | 0.01 | 0.00 | 88 | 1017.6 |
| 20260508103056 | 48 | 360 | 0.0 | 3.0 | 0.00 | 0.01 | 0.00 | 88 | 1017.7 |
| 20260508102552 | 48 | 360 | 1.0 | 4.0 | 0.00 | 0.01 | 0.00 | 89 | 1017.4 |
| 20260508102052 | 48 | 360 | 1.0 | 4.0 | 0.00 | 0.01 | 0.00 | 89 | 1017.5 |
| 20260508101553 | 48 | 360 | 1.0 | 3.0 | 0.00 | 0.01 | 0.00 | 89 | 1017.3 |
| 20260508101053 | 48 | 0 | 0.0 | 2.0 | 0.00 | 0.01 | 0.00 | 89 | 1017.1 |
| 20260508100552 | 48 | 360 | 0.0 | 4.0 | 0.00 | 0.01 | 0.00 | 89 | 1017.2 |
| 20260508100100 | 48 | 0 | 0.0 | 4.0 | 0.00 | 0.01 | 0.00 | 90 | 1017.3 |
| 20260508095552 | 47 | 360 | 1.0 | 3.0 | 0.00 | 0.11 | 0.00 | 90 | 1017.1 |
| 20260508095052 | 47 | 360 | 1.0 | 3.0 | 0.00 | 0.11 | 0.00 | 90 | 1017.3 |
| 20260508094557 | 47 | 0 | 0.0 | 1.0 | 0.00 | 0.11 | 0.00 | 90 | 1017.3 |
| 20260508094054 | 47 | 0 | 0.0 | 0.0 | 0.00 | 0.11 | 0.00 | 90 | 1017.1 |
| 20260508093556 | 47 | 0 | 0.0 | 0.0 | 0.00 | 0.11 | 0.00 | 90 | 1017.1 |
| 20260508093101 | 47 | 0 | 0.0 | 0.0 | 0.00 | 0.11 | 0.00 | 90 | 1017.0 |
| 20260508092551 | 47 | 0 | 0.0 | 0.0 | 0.00 | 0.11 | 0.00 | 90 | 1017.2 |
| 20260508092056 | 47 | 0 | 0.0 | 0.0 | 0.00 | 0.11 | 0.00 | 90 | 1017.2 |
| 20260508091609 | 47 | 0 | 0.0 | 0.0 | 0.00 | 0.11 | 0.00 | 89 | 1017.1 |
| 20260508091050 | 48 | 0 | 0.0 | 0.0 | 0.00 | 0.11 | 0.00 | 89 | 1017.2 |
| 20260508090557 | 48 | 0 | 0.0 | 0.0 | 0.00 | 0.11 | 0.00 | 89 | 1017.1 |
| 20260508090107 | 48 | 0 | 0.0 | 0.0 | 0.00 | 0.11 | 0.00 | 89 | 1016.9 |
| 20260508085552 | 48 | 0 | 0.0 | 0.0 | 0.00 | 0.18 | 0.00 | 89 | 1017.0 |
| 20260508085052 | 48 | 0 | 0.0 | 0.0 | 0.00 | 0.18 | 0.00 | 90 | 1016.8 |
| 20260508084557 | 48 | 0 | 0.0 | 0.0 | 0.00 | 0.18 | 0.00 | 90 | 1016.9 |
| 20260508084052 | 48 | 0 | 0.0 | 0.0 | 0.00 | 0.18 | 0.00 | 90 | 1016.9 |
| 20260508083553 | 48 | 0 | 0.0 | 0.0 | 0.00 | 0.18 | 0.00 | 90 | 1016.9 |
| 20260508083111 | 48 | 0 | 0.0 | 0.0 | 0.00 | 0.18 | 0.00 | 89 | 1016.8 |
| 20260508082552 | 49 | 0 | 0.0 | 0.0 | 0.00 | 0.18 | 0.00 | 89 | 1016.8 |
| 20260508082052 | 49 | 0 | 0.0 | 0.0 | 0.00 | 0.18 | 0.00 | 89 | 1016.9 |
| 20260508081559 | 49 | 0 | 0.0 | 0.0 | 0.00 | 0.18 | 0.00 | 89 | 1016.9 |
| 20260508081055 | 49 | 0 | 0.0 | 0.0 | 0.00 | 0.18 | 0.00 | 89 | 1017.1 |
| 20260508080552 | 49 | 0 | 0.0 | 0.0 | 0.00 | 0.18 | 0.00 | 89 | 1017.0 |
| 20260508080110 | 49 | 0 | 0.0 | 0.0 | 0.00 | 0.18 | 0.00 | 89 | 1017.0 |
| 20260508075551 | 49 | 0 | 0.0 | 0.0 | 0.00 | 0.18 | 0.00 | 89 | 1016.9 |
| 20260508075052 | 49 | 0 | 0.0 | 0.0 | 0.00 | 0.18 | 0.00 | 90 | 1016.9 |
| 20260508074557 | 49 | 0 | 0.0 | 0.0 | 0.00 | 0.18 | 0.00 | 89 | 1017.0 |
| 20260508074052 | 49 | 0 | 0.0 | 0.0 | 0.00 | 0.18 | 0.00 | 89 | 1016.9 |
| 20260508073553 | 49 | 0 | 0.0 | 0.0 | 0.00 | 0.18 | 0.00 | 88 | 1017.1 |
| 20260508073106 | 49 | 0 | 0.0 | 0.0 | 0.00 | 0.18 | 0.00 | 89 | 1017.0 |
| 20260508072552 | 49 | 0 | 0.0 | 0.0 | 0.00 | 0.18 | 0.00 | 89 | 1017.0 |
| 20260508072052 | 49 | 0 | 0.0 | 0.0 | 0.00 | 0.18 | 0.00 | 88 | 1017.1 |
| 20260508071604 | 49 | 0 | 0.0 | 0.0 | 0.00 | 0.18 | 0.00 | 88 | 1017.1 |
| 20260508071052 | 49 | 0 | 0.0 | 0.0 | 0.00 | 0.18 | 0.00 | 88 | 1017.2 |
| 20260508070553 | 50 | 0 | 0.0 | 0.0 | 0.00 | 0.18 | 0.00 | 88 | 1017.3 |
| 20260508070142 | 50 | 0 | 0.0 | 0.0 | 0.00 | 0.18 | 0.00 | 88 | 1017.2 |
| 20260508065552 | 50 | 0 | 0.0 | 0.0 | 0.00 | 0.18 | 0.00 | 88 | 1017.3 |
| 20260508065051 | 50 | 0 | 0.0 | 0.0 | 0.00 | 0.18 | 0.00 | 88 | 1017.2 |
| 20260508064614 | 50 | 0 | 0.0 | 0.0 | 0.00 | 0.18 | 0.00 | 87 | 1017.3 |
| 20260508064055 | 50 | 0 | 0.0 | 0.0 | 0.00 | 0.18 | 0.00 | 87 | 1017.5 |
| 20260508063553 | 50 | 0 | 0.0 | 0.0 | 0.00 | 0.18 | 0.00 | 87 | 1017.5 |
| 20260508063059 | 50 | 0 | 0.0 | 0.0 | 0.00 | 0.18 | 0.00 | 87 | 1017.4 |
| 20260508062552 | 50 | 0 | 0.0 | 0.0 | 0.00 | 0.18 | 0.00 | 87 | 1017.6 |
| 20260508062052 | 51 | 0 | 0.0 | 0.0 | 0.00 | 0.18 | 0.00 | 86 | 1017.4 |
| 20260508061605 | 51 | 0 | 0.0 | 0.0 | 0.00 | 0.18 | 0.00 | 87 | 1017.5 |
| 20260508061055 | 51 | 0 | 0.0 | 0.0 | 0.00 | 0.18 | 0.00 | 86 | 1017.5 |
| 20260508060552 | 51 | 0 | 0.0 | 0.0 | 0.00 | 0.18 | 0.00 | 86 | 1017.7 |
| 20260508060056 | 51 | 0 | 0.0 | 0.0 | 0.00 | 0.18 | 0.00 | 86 | 1017.4 |
| 20260508055556 | 51 | 0 | 0.0 | 0.0 | 0.00 | 0.18 | 0.00 | 87 | 1017.5 |
| 20260508055052 | 51 | 0 | 0.0 | 0.0 | 0.00 | 0.18 | 0.00 | 86 | 1017.6 |
| 20260508054553 | 51 | 0 | 0.0 | 0.0 | 0.00 | 0.18 | 0.00 | 86 | 1017.6 |
| 20260508054056 | 51 | 0 | 0.0 | 0.0 | 0.00 | 0.18 | 0.00 | 86 | 1017.6 |
| 20260508053552 | 52 | 0 | 0.0 | 0.0 | 0.00 | 0.18 | 0.00 | 86 | 1017.6 |
| 20260508053103 | 52 | 0 | 0.0 | 0.0 | 0.00 | 0.18 | 0.00 | 85 | 1017.6 |
| 20260508052553 | 52 | 0 | 0.0 | 0.0 | 0.00 | 0.18 | 0.00 | 85 | 1017.5 |
| 20260508052054 | 52 | 0 | 0.0 | 0.0 | 0.00 | 0.18 | 0.00 | 85 | 1017.6 |
| 20260508051558 | 52 | 0 | 0.0 | 0.0 | 0.00 | 0.18 | 0.00 | 85 | 1017.4 |
| 20260508051052 | 52 | 0 | 0.0 | 0.0 | 0.00 | 0.18 | 0.00 | 84 | 1017.4 |
| 20260508050553 | 52 | 0 | 0.0 | 0.0 | 0.00 | 0.18 | 0.00 | 84 | 1017.3 |
| 20260508045552 | 52 | 0 | 0.0 | 0.0 | 0.00 | 0.20 | 0.00 | 85 | 1017.3 |
| 20260508045052 | 53 | 0 | 0.0 | 0.0 | 0.00 | 0.20 | 0.00 | 84 | 1017.3 |
| 20260508044552 | 53 | 0 | 0.0 | 0.0 | 0.00 | 0.20 | 0.00 | 84 | 1017.5 |
| 20260508044051 | 53 | 0 | 0.0 | 0.0 | 0.00 | 0.20 | 0.00 | 83 | 1017.2 |
| 20260508043551 | 53 | 0 | 0.0 | 0.0 | 0.00 | 0.20 | 0.00 | 83 | 1017.3 |
| 20260508043102 | 53 | 0 | 0.0 | 0.0 | 0.00 | 0.20 | 0.00 | 83 | 1017.3 |
| 20260508042549 | 54 | 0 | 0.0 | 0.0 | 0.00 | 0.20 | 0.00 | 83 | 1017.3 |
| 20260508042048 | 54 | 0 | 0.0 | 0.0 | 0.00 | 0.20 | 0.00 | 84 | 1017.2 |
| 20260508041555 | 54 | 0 | 0.0 | 0.0 | 0.00 | 0.20 | 0.00 | 82 | 1017.3 |
| 20260508041055 | 54 | 0 | 0.0 | 0.0 | 0.00 | 0.20 | 0.00 | 82 | 1017.2 |
| 20260508040552 | 55 | 0 | 0.0 | 0.0 | 0.00 | 0.20 | 0.00 | 82 | 1017.2 |
| 20260508040052 | 55 | 0 | 0.0 | 0.0 | 0.00 | 0.20 | 0.00 | 82 | 1017.2 |
| 20260508035552 | 55 | 0 | 0.0 | 0.0 | 0.00 | 0.23 | 0.20 | 82 | 1017.0 |
| 20260508035052 | 55 | 0 | 0.0 | 0.0 | 0.00 | 0.23 | 0.20 | 82 | 1017.0 |
| 20260508034559 | 55 | 0 | 0.0 | 0.0 | 0.00 | 0.23 | 0.20 | 82 | 1017.1 |
| 20260508034052 | 56 | 0 | 0.0 | 0.0 | 0.00 | 0.23 | 0.20 | 81 | 1017.0 |
| 20260508033552 | 56 | 0 | 0.0 | 0.0 | 0.00 | 0.23 | 0.20 | 81 | 1017.0 |
| 20260508033057 | 56 | 0 | 0.0 | 0.0 | 0.00 | 0.23 | 0.20 | 80 | 1017.1 |
| 20260508032552 | 56 | 0 | 0.0 | 0.0 | 0.00 | 0.23 | 0.20 | 80 | 1016.9 |
| 20260508032052 | 56 | 0 | 0.0 | 0.0 | 0.00 | 0.23 | 0.20 | 79 | 1017.0 |
| 20260508031555 | 56 | 0 | 0.0 | 0.0 | 0.00 | 0.23 | 0.20 | 79 | 1016.9 |
| 20260508031054 | 57 | 0 | 0.0 | 0.0 | 0.00 | 0.23 | 0.20 | 79 | 1016.8 |
| 20260508030552 | 57 | 0 | 0.0 | 0.0 | 0.00 | 0.23 | 0.20 | 78 | 1016.9 |
| 20260508030100 | 57 | 0 | 0.0 | 1.0 | 0.00 | 0.23 | 0.20 | 79 | 1016.7 |
| 20260508025548 | 57 | 0 | 0.0 | 1.0 | 0.00 | 0.29 | 0.20 | 76 | 1016.5 |
| 20260508025052 | 57 | 0 | 0.0 | 2.0 | 0.00 | 0.29 | 0.20 | 74 | 1016.6 |
| 20260508024558 | 58 | 0 | 0.0 | 3.0 | 0.00 | 0.29 | 0.20 | 74 | 1016.5 |
| 20260508024053 | 58 | 0 | 0.0 | 3.0 | 0.00 | 0.29 | 0.20 | 74 | 1016.5 |
| 20260508023553 | 58 | 0 | 0.0 | 2.0 | 0.00 | 0.29 | 0.20 | 74 | 1016.6 |
| 20260508023053 | 58 | 0 | 0.0 | 0.0 | 0.00 | 0.29 | 0.20 | 75 | 1016.4 |
| 20260508022554 | 58 | 0 | 0.0 | 0.0 | 0.00 | 0.29 | 0.20 | 76 | 1016.6 |
| 20260508022052 | 58 | 0 | 0.0 | 0.0 | 0.00 | 0.29 | 0.20 | 74 | 1016.5 |
| 20260508021552 | 58 | 0 | 0.0 | 0.0 | 0.00 | 0.29 | 0.20 | 76 | 1016.6 |
| 20260508021054 | 58 | 0 | 0.0 | 0.0 | 0.00 | 0.29 | 0.20 | 76 | 1016.4 |
| 20260508020555 | 59 | 0 | 0.0 | 0.0 | 0.00 | 0.29 | 0.20 | 77 | 1016.3 |
| 20260508020055 | 59 | 0 | 0.0 | 0.0 | 0.00 | 0.29 | 0.20 | 77 | 1016.2 |
| 20260508015552 | 59 | 0 | 0.0 | 0.0 | 0.00 | 0.29 | 0.20 | 77 | 1016.3 |
| 20260508015049 | 59 | 0 | 0.0 | 0.0 | 0.00 | 0.29 | 0.20 | 75 | 1016.4 |
| 20260508014602 | 59 | 0 | 0.0 | 0.0 | 0.00 | 0.29 | 0.20 | 75 | 1016.2 |
| 20260508014052 | 60 | 0 | 0.0 | 1.0 | 0.00 | 0.29 | 0.20 | 75 | 1016.2 |